Location: Stendal
(52.5994°N, 11.8400°E)
Time: 16:52:32
(UTC+01:00)

Envisat - Pass Details

Date: 09 October 2022
Orbit: 763 x 765 km, 98.2° (Epoch: 30 November)

Event Time Altitude Azimuth Distance (km) Brightness Sun altitude
Rises 03:53:26 0° 30° (NNE) 3,246 7.2 -31.7°
Reaches altitude 10° 03:57:43 10° 65° (ENE) 2,311 6.3 -31.1°
Maximum altitude 03:59:12 11° 82° (E) 2,226 6.1 -31.0°
Drops below altitude 10° 04:00:42 10° 100° (E) 2,306 6.0 -30.8°
Sets 04:04:56 0° 134° (SE) 3,224 6.4 -30.2°
